| time (UTC) | temp F | wind direction | speed knots | gust knots | rain 1hr in | rain 24hr in | rain mn in | humidity % | barometer mb |
| 20260507065022 | 52 | 303 | 2.6 | 3.5 | 0.00 | 0.22 | 0.00 | 69 | 1014.9 |
| 20260507064027 | 52 | 321 | 2.6 | 5.2 | 0.00 | 0.22 | 0.00 | 71 | 1014.9 |
| 20260507063031 | 52 | 318 | 2.6 | 4.3 | 0.00 | 0.22 | 0.00 | 77 | 1015.0 |
| 20260507062018 | 52 | 312 | 2.6 | 5.2 | 0.00 | 0.22 | 0.00 | 80 | 1015.0 |
| 20260507061023 | 52 | 327 | 3.5 | 6.1 | 0.00 | 0.22 | 0.00 | 84 | 1015.0 |
| 20260507055032 | 52 | 304 | 1.7 | 5.2 | 0.00 | 0.22 | 0.00 | 87 | 1014.7 |
| 20260507054020 | 52 | 358 | 1.7 | 2.6 | 0.00 | 0.22 | 0.00 | 87 | 1014.7 |
| 20260507053025 | 52 | 266 | 1.7 | 2.6 | 0.00 | 0.22 | 0.00 | 88 | 1014.9 |
| 20260507052029 | 52 | 298 | 2.6 | 5.2 | 0.00 | 0.22 | 0.00 | 88 | 1014.7 |
| 20260507051036 | 53 | 287 | 1.7 | 2.6 | 0.00 | 0.22 | 0.00 | 87 | 1014.7 |
| 20260507050021 | 53 | 328 | 1.7 | 3.5 | 0.00 | 0.22 | 0.00 | 85 | 1015.0 |
| 20260507045026 | 53 | 307 | 2.6 | 5.2 | 0.00 | 0.22 | 0.00 | 84 | 1014.9 |
| 20260507044031 | 53 | 291 | 3.5 | 5.2 | 0.00 | 0.22 | 0.00 | 85 | 1014.9 |
| 20260507043017 | 54 | 268 | 2.6 | 3.5 | 0.00 | 0.22 | 0.00 | 85 | 1015.1 |
| 20260507042043 | 54 | 289 | 2.6 | 4.3 | 0.00 | 0.22 | 0.00 | 85 | 1015.0 |
| 20260507041107 | 54 | 270 | 1.7 | 2.6 | 0.00 | 0.22 | 0.00 | 85 | 1015.0 |
| 20260507040522 | 54 | 289 | 2.6 | 4.3 | 0.00 | 0.22 | 0.00 | 85 | 1014.9 |
| 20260507035522 | 54 | 299 | 3.5 | 6.1 | 0.00 | 0.22 | 0.22 | 84 | 1014.7 |
| 20260507034520 | 54 | 316 | 3.5 | 5.2 | 0.00 | 0.22 | 0.22 | 86 | 1014.7 |
| 20260507033519 | 54 | 317 | 3.5 | 5.2 | 0.00 | 0.22 | 0.22 | 87 | 1015.0 |
| 20260507032539 | 54 | 295 | 1.7 | 2.6 | 0.00 | 0.22 | 0.22 | 88 | 1014.6 |
| 20260507031516 | 55 | 216 | 0.9 | 2.6 | 0.00 | 0.22 | 0.22 | 88 | 1014.5 |
| 20260507030515 | 55 | 288 | 1.7 | 3.5 | 0.00 | 0.22 | 0.22 | 89 | 1014.5 |
| 20260507025520 | 55 | 245 | 1.7 | 3.5 | 0.00 | 0.22 | 0.22 | 89 | 1014.7 |
| 20260507024524 | 55 | 342 | 2.6 | 3.5 | 0.00 | 0.22 | 0.22 | 89 | 1014.6 |
| 20260507023530 | 55 | 280 | 1.7 | 5.2 | 0.00 | 0.22 | 0.22 | 89 | 1014.7 |
| 20260507022516 | 55 | 286 | 1.7 | 3.5 | 0.00 | 0.22 | 0.22 | 89 | 1014.7 |
| 20260507021521 | 55 | 294 | 3.5 | 5.2 | 0.00 | 0.22 | 0.22 | 89 | 1014.6 |
| 20260507020606 | 56 | 302 | 3.5 | 5.2 | 0.00 | 0.22 | 0.22 | 89 | 1014.5 |
| 20260507015530 | 56 | 357 | 3.5 | 7.0 | 0.00 | 0.22 | 0.22 | 90 | 1014.4 |
| 20260507014518 | 56 | 314 | 3.5 | 6.1 | 0.00 | 0.22 | 0.22 | 91 | 1014.6 |
| 20260507013522 | 56 | 160 | 2.6 | 3.5 | 0.00 | 0.22 | 0.22 | 90 | 1014.4 |
| 20260507012527 | 57 | 301 | 1.7 | 3.5 | 0.00 | 0.22 | 0.22 | 89 | 1014.4 |
| 20260507011532 | 57 | 247 | 1.7 | 4.3 | 0.00 | 0.22 | 0.22 | 89 | 1014.4 |
| 20260507010518 | 58 | 275 | 2.6 | 4.3 | 0.00 | 0.22 | 0.22 | 88 | 1014.4 |
| 20260507005523 | 58 | 278 | 3.5 | 6.1 | 0.00 | 0.22 | 0.22 | 88 | 1014.4 |
| 20260507004528 | 58 | 244 | 1.7 | 3.5 | 0.00 | 0.22 | 0.22 | 88 | 1014.2 |
| 20260507003532 | 58 | 235 | 1.7 | 2.6 | 0.00 | 0.22 | 0.22 | 87 | 1013.9 |
| 20260507002539 | 59 | 278 | 3.5 | 7.0 | 0.00 | 0.22 | 0.22 | 87 | 1013.8 |
| 20260507001524 | 59 | 303 | 4.3 | 7.8 | 0.00 | 0.22 | 0.22 | 87 | 1013.7 |
| 20260507000529 | 59 | 292 | 6.1 | 8.7 | 0.00 | 0.22 | 0.22 | 86 | 1013.7 |
| 20260506235516 | 60 | 317 | 7.0 | 9.6 | 0.00 | 0.22 | 0.22 | 86 | 1013.0 |
| 20260506234541 | 60 | 297 | 5.2 | 7.8 | 0.00 | 0.22 | 0.22 | 87 | 1012.6 |
| 20260506233526 | 61 | 294 | 4.3 | 6.1 | 0.00 | 0.22 | 0.22 | 87 | 1012.2 |
| 20260506232530 | 61 | 297 | 5.2 | 9.6 | 0.00 | 0.22 | 0.22 | 86 | 1012.4 |
| 20260506231516 | 62 | 290 | 6.1 | 7.8 | 0.00 | 0.22 | 0.22 | 87 | 1012.3 |
| 20260506230522 | 62 | 303 | 4.3 | 7.0 | 0.00 | 0.22 | 0.22 | 87 | 1012.2 |
| 20260506225526 | 63 | 290 | 3.5 | 5.2 | 0.00 | 0.22 | 0.22 | 87 | 1012.1 |
| 20260506224531 | 63 | 296 | 3.5 | 4.3 | 0.00 | 0.22 | 0.22 | 87 | 1012.2 |
| 20260506223517 | 64 | 288 | 3.5 | 6.1 | 0.00 | 0.22 | 0.22 | 86 | 1012.1 |
| 20260506222523 | 64 | 290 | 3.5 | 5.2 | 0.00 | 0.22 | 0.22 | 86 | 1011.9 |
| 20260506221526 | 64 | 257 | 3.5 | 5.2 | 0.00 | 0.22 | 0.22 | 84 | 1011.8 |
| 20260506220552 | 65 | 254 | 4.3 | 7.0 | 0.00 | 0.22 | 0.22 | 84 | 1011.7 |
| 20260506215519 | 65 | 270 | 5.2 | 7.0 | 0.00 | 0.22 | 0.22 | 87 | 1011.6 |
| 20260506214523 | 65 | 252 | 2.6 | 5.2 | 0.00 | 0.22 | 0.22 | 99 | 1011.3 |
| 20260506213529 | 64 | 242 | 3.5 | 5.2 | 0.00 | 0.22 | 0.22 | 99 | 1011.3 |
| 20260506212533 | 64 | 257 | 3.5 | 4.3 | 0.00 | 0.22 | 0.22 | 99 | 1011.0 |
| 20260506211521 | 65 | 259 | 2.6 | 3.5 | 0.00 | 0.22 | 0.22 | 98 | 1010.7 |
| 20260506210524 | 65 | 248 | 3.5 | 6.1 | 0.00 | 0.22 | 0.22 | 96 | 1010.6 |
| 20260506205530 | 65 | 243 | 3.5 | 5.2 | 0.00 | 0.22 | 0.22 | 95 | 1010.5 |
| 20260506204515 | 66 | 218 | 2.6 | 4.3 | 0.00 | 0.22 | 0.22 | 93 | 1010.5 |
| 20260506203520 | 66 | 257 | 3.5 | 5.2 | 0.00 | 0.22 | 0.22 | 92 | 1010.3 |
| 20260506202525 | 67 | 252 | 5.2 | 7.8 | 0.00 | 0.22 | 0.22 | 91 | 1010.3 |
| 20260506201524 | 68 | 257 | 5.2 | 7.8 | 0.00 | 0.22 | 0.22 | 91 | 1010.4 |
| 20260506200516 | 67 | 258 | 4.3 | 6.1 | 0.00 | 0.22 | 0.22 | 93 | 1010.5 |
| 20260506195541 | 69 | 244 | 5.2 | 8.7 | 0.00 | 0.22 | 0.22 | 91 | 1010.6 |
| 20260506194520 | 68 | 234 | 3.5 | 6.1 | 0.00 | 0.22 | 0.22 | 94 | 1010.5 |
| 20260506193519 | 69 | 256 | 5.2 | 7.8 | 0.00 | 0.22 | 0.22 | 92 | 1010.5 |
| 20260506192517 | 67 | 240 | 6.1 | 8.7 | 0.00 | 0.22 | 0.22 | 94 | 1010.7 |
| 20260506191516 | 65 | 245 | 5.2 | 8.7 | 0.00 | 0.22 | 0.22 | 98 | 1010.7 |
| 20260506190528 | 64 | 237 | 5.2 | 7.8 | 0.00 | 0.22 | 0.22 | 99 | 1010.8 |
| 20260506185531 | 64 | 256 | 5.2 | 8.7 | 0.00 | 0.22 | 0.22 | 99 | 1010.8 |
| 20260506184539 | 64 | 209 | 5.2 | 7.8 | 0.00 | 0.22 | 0.22 | 98 | 1011.0 |
| 20260506183523 | 65 | 238 | 5.2 | 7.0 | 0.00 | 0.22 | 0.22 | 96 | 1011.0 |
| 20260506182528 | 65 | 203 | 5.2 | 7.0 | 0.00 | 0.22 | 0.22 | 96 | 1010.9 |
| 20260506181533 | 66 | 251 | 7.0 | 8.7 | 0.00 | 0.22 | 0.22 | 93 | 1010.9 |
| 20260506180540 | 66 | 225 | 6.1 | 7.8 | 0.00 | 0.22 | 0.22 | 93 | 1010.9 |
| 20260506175525 | 66 | 235 | 6.1 | 7.8 | 0.00 | 0.22 | 0.22 | 92 | 1010.9 |
| 20260506174529 | 67 | 239 | 6.1 | 9.6 | 0.00 | 0.22 | 0.22 | 90 | 1010.7 |
| 20260506173536 | 68 | 238 | 7.8 | 15.6 | 0.00 | 0.22 | 0.22 | 89 | 1010.7 |
| 20260506172520 | 66 | 230 | 6.1 | 10.4 | 0.00 | 0.22 | 0.22 | 92 | 1010.7 |
| 20260506171545 | 67 | 237 | 5.2 | 7.8 | 0.00 | 0.22 | 0.22 | 92 | 1010.7 |
| 20260506170531 | 67 | 248 | 6.1 | 11.3 | 0.00 | 0.22 | 0.22 | 93 | 1010.7 |
| 20260506165518 | 63 | 212 | 5.2 | 7.8 | 0.00 | 0.22 | 0.22 | 99 | 1010.9 |
| 20260506164522 | 63 | 219 | 6.1 | 9.6 | 0.00 | 0.22 | 0.22 | 99 | 1010.8 |
| 20260506163526 | 64 | 240 | 8.7 | 10.4 | 0.00 | 0.22 | 0.22 | 95 | 1010.8 |
| 20260506162531 | 64 | 244 | 6.1 | 9.6 | 0.00 | 0.22 | 0.22 | 94 | 1010.9 |
| 20260506161518 | 64 | 232 | 7.0 | 10.4 | 0.00 | 0.22 | 0.22 | 93 | 1010.8 |
| 20260506160603 | 65 | 217 | 6.1 | 13.0 | 0.00 | 0.22 | 0.22 | 92 | 1010.7 |
| 20260506155548 | 67 | 237 | 6.1 | 9.6 | 0.00 | 0.22 | 0.22 | 90 | 1010.7 |
| 20260506154532 | 67 | 215 | 6.1 | 10.4 | 0.00 | 0.22 | 0.22 | 90 | 1010.1 |
| 20260506153539 | 64 | 202 | 5.2 | 8.7 | 0.02 | 0.22 | 0.22 | 94 | 1010.4 |
| 20260506152524 | 63 | 229 | 5.2 | 8.7 | 0.04 | 0.22 | 0.22 | 96 | 1010.6 |
| 20260506151529 | 63 | 240 | 4.3 | 6.1 | 0.06 | 0.22 | 0.22 | 98 | 1010.5 |
| 20260506150516 | 61 | 217 | 4.3 | 8.7 | 0.08 | 0.22 | 0.22 | 99 | 1010.1 |
| 20260506145520 | 61 | 183 | 4.3 | 6.1 | 0.10 | 0.22 | 0.22 | 99 | 1010.3 |
| 20260506144525 | 60 | 210 | 5.2 | 8.7 | 0.12 | 0.23 | 0.22 | 99 | 1010.8 |
| 20260506143711 | 59 | 215 | 5.2 | 7.8 | 0.14 | 0.21 | 0.20 | 99 | 1011.0 |
| 20260506142516 | 59 | 185 | 6.1 | 10.4 | 0.14 | 0.19 | 0.18 | 99 | 1011.3 |
| 20260506141521 | 59 | 219 | 5.2 | 9.6 | 0.13 | 0.17 | 0.16 | 99 | 1011.3 |
| 20260506140526 | 60 | 210 | 3.5 | 6.1 | 0.12 | 0.15 | 0.14 | 99 | 1011.2 |
| 20260506135531 | 60 | 181 | 3.5 | 6.1 | 0.10 | 0.13 | 0.12 | 99 | 1011.1 |
| 20260506134538 | 60 | 196 | 4.3 | 7.0 | 0.08 | 0.11 | 0.10 | 99 | 1011.1 |
| 20260506133522 | 61 | 199 | 3.5 | 6.1 | 0.04 | 0.07 | 0.06 | 96 | 1010.9 |
| 20260506132528 | 61 | 224 | 3.5 | 7.0 | 0.02 | 0.05 | 0.04 | 95 | 1010.7 |
| 20260506131532 | 61 | 197 | 2.6 | 5.2 | 0.01 | 0.04 | 0.03 | 94 | 1010.7 |
| 20260506130559 | 61 | 158 | 3.5 | 6.1 | 0.01 | 0.03 | 0.02 | 92 | 1010.8 |
| 20260506125523 | 62 | 175 | 4.3 | 6.1 | 0.01 | 0.03 | 0.02 | 90 | 1010.8 |
| 20260506124528 | 62 | 206 | 4.3 | 7.0 | 0.01 | 0.03 | 0.02 | 91 | 1010.9 |
| 20260506123515 | 62 | 245 | 4.3 | 6.1 | 0.02 | 0.03 | 0.02 | 90 | 1010.7 |
| 20260506122520 | 61 | 219 | 5.2 | 9.6 | 0.02 | 0.03 | 0.02 | 91 | 1011.0 |
| 20260506121546 | 61 | 198 | 3.5 | 7.0 | 0.02 | 0.03 | 0.02 | 92 | 1011.1 |
| 20260506120543 | 61 | 188 | 3.5 | 6.1 | 0.01 | 0.02 | 0.01 | 92 | 1011.1 |
| 20260506115537 | 60 | 208 | 3.5 | 5.2 | 0.01 | 0.02 | 0.01 | 92 | 1011.2 |
| 20260506114522 | 61 | 193 | 4.3 | 7.0 | 0.01 | 0.02 | 0.01 | 91 | 1011.4 |
| 20260506113520 | 61 | 220 | 2.6 | 6.1 | 0.00 | 0.01 | 0.00 | 90 | 1011.2 |
| 20260506112519 | 62 | 202 | 3.5 | 7.8 | 0.00 | 0.01 | 0.00 | 87 | 1011.3 |
| 20260506111517 | 63 | 195 | 5.2 | 7.8 | 0.00 | 0.01 | 0.00 | 82 | 1011.1 |
| 20260506110537 | 65 | 191 | 5.2 | 7.8 | 0.00 | 0.01 | 0.00 | 77 | 1010.8 |
| 20260506105535 | 65 | 217 | 6.1 | 9.6 | 0.00 | 0.01 | 0.00 | 74 | 1010.5 |
| 20260506104532 | 67 | 214 | 6.1 | 11.3 | 0.00 | 0.01 | 0.00 | 69 | 1010.4 |
| 20260506103519 | 67 | 216 | 5.2 | 7.8 | 0.00 | 0.01 | 0.00 | 67 | 1010.1 |
| 20260506102524 | 67 | 217 | 4.3 | 6.1 | 0.00 | 0.01 | 0.00 | 65 | 1010.1 |
| 20260506101529 | 67 | 199 | 3.5 | 5.2 | 0.00 | 0.01 | 0.00 | 65 | 1010.0 |
| 20260506100536 | 68 | 191 | 5.2 | 8.7 | 0.00 | 0.01 | 0.00 | 65 | 1009.9 |
| 20260506095520 | 67 | 188 | 4.3 | 7.0 | 0.00 | 0.01 | 0.00 | 65 | 1009.9 |
| 20260506094525 | 67 | 191 | 5.2 | 10.4 | 0.00 | 0.01 | 0.00 | 65 | 1009.8 |
| 20260506093529 | 68 | 221 | 5.2 | 7.8 | 0.00 | 0.01 | 0.00 | 64 | 1010.0 |
| 20260506092557 | 68 | 216 | 3.5 | 6.1 | 0.00 | 0.01 | 0.00 | 63 | 1010.0 |
| 20260506091521 | 68 | 192 | 6.1 | 8.7 | 0.00 | 0.01 | 0.00 | 62 | 1010.0 |
| 20260506090526 | 68 | 178 | 5.2 | 9.6 | 0.00 | 0.01 | 0.00 | 62 | 1010.1 |
| 20260506085531 | 69 | 213 | 5.2 | 9.6 | 0.00 | 0.01 | 0.00 | 61 | 1010.5 |
| 20260506084517 | 69 | 206 | 4.3 | 7.0 | 0.00 | 0.01 | 0.00 | 60 | 1010.4 |
| 20260506083522 | 69 | 186 | 6.1 | 10.4 | 0.00 | 0.01 | 0.00 | 59 | 1010.5 |
| 20260506082527 | 69 | 181 | 5.2 | 13.0 | 0.00 | 0.01 | 0.00 | 58 | 1010.5 |
| 20260506081532 | 69 | 215 | 5.2 | 8.7 | 0.00 | 0.01 | 0.00 | 58 | 1010.4 |
| 20260506080519 | 70 | 219 | 7.0 | 11.3 | 0.00 | 0.01 | 0.00 | 57 | 1010.4 |
| 20260506072519 | 70 | 197 | 6.1 | 7.8 | 0.00 | 0.01 | 0.00 | 57 | 1010.6 |
| 20260506071524 | 70 | 210 | 5.2 | 7.8 | 0.00 | 0.01 | 0.00 | 57 | 1010.7 |
| 20260506070529 | 70 | 182 | 4.3 | 7.0 | 0.00 | 0.01 | 0.00 | 56 | 1010.8 |